Погода в Каргополе

Погода в Каргополе : погода сейчас, прогноз погоды и архив. Всё, что Вы хотите узнать о погоде в Каргополе!

Хотите узнать прогноз погоды в Каргополе? Тогда Вам сюда: Погода в Каргополе

Поиск расширенной информации на нашем сайте:

Другие новости

Новости СМИ2

Главная страница сайта

Новости сайта

03.07.2017

Напоминаем, что на нашем специализированном сайте Метеоцентр.Азия вы можете получить высокодетализированные автоматические прогнозы погоды по пунктам России, СНГ и мира в авиационном формате (включающие направление и скорость ветра, видимость, явления погоды, количество и форму облачности, нижнюю и верхнюю границу облачности).


Погода в Каргополе - сегодня

Время (UTC), дата Ветер
(°,м/с) 
Видим.   Явления Облачность Т
(°С)
Тd
(°С)
f(%) Тe
(°С)
Pmin
(гПа)
dP
(гПа)
Po
(мм)
O2
(г/м3)
Тmin Tmax R s Состояние
почвы
03 12.12.17 130 (ЮВ) 4000 м  слаб. снег  10/10 300 м 
[Frnb]
-0.8 -1.9 92 -2  1013.4  0.4  748  303  -1    0.0     
06 12.12.17 140 (ЮВ) 20000 м  {снег}  9/9 600 м 
[Sc]
-0.8 -2.5 88 -2  1014.3  0.9  749  303           
09 12.12.17 150 (ЮВ) 20000 м    9/9 600 м 
[Sc]
-1.1 -2.6 90 -4  1014.3  749  303           
12 12.12.17 150 (ЮВ) 20000 м    9/9 600 м 
[Sc]
-1.1 -3 87 -4  1014.1  0.1  749  303           
15 12.12.17 150 (ЮВ) 6-12{12}  20000 м    9/9 600 м 
[Sc]
-1.3 -3.8 83 -5  1012.4  -1.7  747  303    -0.6  0.0     
18 12.12.17 160 (Ю) 5-10{12}  20000 м    9/9 600 м 
[Sc]
-0.5 -3.7 79 -4  1009.4  -2.8  745  301           
21 12.12.17 160 (Ю) 6-14{14}  20000 м    9/9 600 м 
[Sc]
-0.4 -3.2 81 -4  1005.8  -3.6  743  300           
00 13.12.17 160 (Ю) 6-12{14}  1000 м  сильн. снег  10/10 300 м 
[Frnb|Ns]
-1.3 -2.4 92 -5  1001.5  -4.2  739  300           
03 13.12.17 170 (Ю) 7-13{14}  1000 м  сильн. снег  10/10 300 м 
[Frnb|Ns]
-0.6 -1.6 93 -5  999  -2.5  738  298  -1.3    21  равномерный
сухой снег
100% 
06 13.12.17 180 (Ю) 6-11{15}  20000 м  в посл. час снег  10/10 300 м 
[Frnb|Ns]
+0.7 -0.8 90 -3  997.3  -1.6  736  296           
09 13.12.17 180 (Ю) 7-12{14}  10 км  слаб. дождь  10/10 300 м 
[Frnb|Ns]
+1.4 +0.2 92 -2  995.8  -1.5  735  295           
12 13.12.17 190 (Ю) 7-13{14}  10 км  слаб. дождь  10/8 300 м средняя 
[Frnb|As op]
+1.9 +0 87 -2  995.4  -0.3  735  294           
15 13.12.17 220 (ЮЗ) 6-14{14}  20000 м  {снег, дождь}  9/9 600 м 
[Sc]
+0.7 -2.5 79 -3  998.8  3.3  737  297    +2  0.8     
18 13.12.17 220 (ЮЗ) 5{14}  20000 м  {снег, дождь}  9/9 600 м 
[Sc]
-0.5 -4.6 74 -4  1002.3  3.3  740  299           
21 13.12.17 210 (ЮЗ) 20000 м    ясно 
-1.5 -4.1 82 -4  1004.5  2.1  742  301           
00 14.12.17 190 (Ю) 20000 м    ясно 
-2.3 -4.8 83 -6  1006.6  2.1  743  302           
03 14.12.17 200 (Ю) 20000 м    9/9 600 м 
[Sc]
-2.6 -4.9 84 -5  1008  1.4  744  303  -2.8      18  равномерный
мокрый или
старый снег
100% 
06 14.12.17 190 (Ю) 20000 м  {снег}  9/9 600 м 
[Sc]
-2.1 -4.1 86 -5  1009.2  1.2  745  303           
09 14.12.17 190 (Ю) 20000 м    10/8 300 м средняя 
[Frnb|As op]
-2.1 -3.7 89 -4  1010.4  1.1  746  303           
12 14.12.17 160 (Ю) 20000 м    10/8 600 м средняя 
[Sc|As op]
-2.1 -3.8 88 -4  1010.6  0.2  746  303           
15 14.12.17 170 (Ю) 20000 м    10/8 300 м средняя 
[Frnb|As op]
-3.2 -4.8 89 -4  1010.5  -0.2  746  305    -1.7  0.0     
18 14.12.17 170 (Ю) 20000 м    9/9 600 м 
[Sc]
-5.5 -6.2 95 -8  1010.9  0.2  746  307           
21 14.12.17 150 (ЮВ) 20000 м    9/9 600 м 
[Sc]
-5.6 -6.3 95 -5  1010  -0.9  745  307           
00 15.12.17 070 (В) 20000 м    9/9 600 м 
[Sc]
-6 -6.7 95 -6  1008.6  -1.3  744  307           
03 15.12.17 060 (СВ) 20000 м    9/9 600 м 
[Sc]
-5.3 -6.1 94 -5  1007.7  -0.9  744  306  -6.2      17  равномерный
сухой снег
100% 
Время (UTC), дата Ветер
(°,м/с) 
Видим.   Явления Облачность Т
(°С)
Тd
(°С)
f(%) Тe
(°С)
Pmin
(гПа)
dP
(гПа)
Po
(мм)
O2
(г/м3)
Тmin Tmax R s Состояние
почвы

Для получения пояснительной информации подведите курсор к названию столбца.

ПОГОДА в Каргополе - архив

Всё, что Вы хотите узнать о погоде в Каргополе - удобно и подробно!

Выберите нужную дату (начиная с 1 января 2015* года) и нажмите кнопку "Найти".
Будут отображены архивные сводки погоды по пункту Каргополь, начиная с указанной даты.


Отображать данные в формате CSV (для использования в таблицах Excel)


Внимание! Наш архив погоды предназначен исключительно для личного некоммерческого использования в познавательных целях. Если Вам необходимы официальные справки о состоянии погоды (для производственных, юридических, коммерческих и т.п. целей), обращайтесь в органы Росгидромета.

*Примечание: данная дата относится к архиву по метеостанциям СССР (Россия, СНГ, Балтия).
Архив по метеостанциям Зарубежной Европы и Азии (кроме Китая) хранится 10 дней, по другим регионам земного шара (Китай, Африка, Америка, Австралия, Океания) - 1 день.

Каргополь - район местоположения метеостанции


Название, широта, долгота, высота метеостанции:
Каргополь 61.5°ш. 38.9°д. 126 м над ур. моря [Российская Федерация]

Дополнительная информация

В oтличие oт бoльшинства пoгoдных сайтoв мы публикуем пoдрoбную метеoинфoрмацию в детальнoм прoфессиoнальнoм фoрмате.

Характеристики температуры и влажнoсти вoздуха измеряются на высoте 2 м в тени вдали oт зданий и деревьев.
Скoрoсть ветра измеряется на высoте 10 м (на урoвне рoста челoвека скoрoсть ветра ниже в 1.5-2 раза). Если метеoстанция нахoдится в гoрoде или в лесу, тo скoрoсть ветра занижена на 2-4 м/с пo сравнению с oткрытым местoм. Скoрoсть ветра над акватoриями крупных рек и oзёр, а также на вершинах хoлмoв на 2-5 м/с выше, чем в oбычных услoвиях.
Атмoсфернoе давление в разных тoчках местнoсти мoжет значительнo oтличаться oт давления на метеoстанции, в зависимoсти oт услoвий рельефа (при пoдъёме на 10 м давление пoнижается примернo на 1 мм рт.ст.).